User: anonymous   Login
Location: Nebula Knoll Observatory
(43.6666°N, 71.0000°W)
Time: 21:24:56
(UTC-04:00)
Language:

Cosmos 1782 - Orbit

View from above orbital plane
View from above orbital plane
View from above satellite
View from above satellite

Ground track
Ground track

The orbit data is extracted from the following two-line orbital elements,

1 16986U 86074A   15091.44648766  .00003890  00000-0  27438-3 0  9993
2 16986 082.5098 186.1640 0011024 210.2300 149.8291 15.04674833549290
Epoch (UTC): 01 April 2015 10:42:56
Eccentricity: 0.0011024
inclination: 82.5098°
perigee height: 545 km
apogee height: 560 km
right ascension of ascending node: 186.1640°
argument of perigee: 210.2300°
revolutions per day: 15.04674833
mean anomaly at epoch: 149.8291°
orbit number at epoch: 54929

The dashed part of the orbit path shows where the satellite is in the earth's shadow,  

DLR